Regional Weather Roundup
Issued by NWS

Home | Current Version | Previous Version | Text Only | Print | Product List | Glossary Off
Versions: 1 2 3 4 5 6 7 8 9 10 11 12 13 14 15 16 17 18 19 20 21 22 23 24 25 26 27 28 29 30 31 32 33 34 35 36 37 38 39 40 41 42 43 44 45 46 47 48 49 50

000
ASUS43 KDMX 202007
RWRIA

WEATHER ROUNDUP FOR IOWA
NATIONAL WEATHER SERVICE DES MOINES IA
200 PM CST SAT DEC 20 2014

NOTE: "FAIR" INDICATES FEW OR NO CLOUDS BELOW 12,000 FEET WITH NO
SIGNIFICANT WEATHER AND/OR OBSTRUCTIONS TO VISIBILITY.

* - THESE STATIONS ARE NOT NWS STATIONS...THUS NOT UNDER NWS
QUALITY CONTROL.  THEY ALSO DO NOT REPORT WEATHER SUCH
AS PRECIPITATION OR FOG.

IAZ001>003-012>014-020>022-031>034-043>046-202100-
   NORTHWEST IOWA

CITY           SKY/WX    TMP DP  RH WIND       PRES   REMARKS
CARROLL *      CLOUDY    34  32  93 S7        30.08S FOG     WCI  28
CHEROKEE *     CLOUDY    32  32 100 S8        30.06F FOG     WCI  25
DENISON *      CLOUDY    32  32 100 S9        30.05S FOG     WCI  24
LE MARS *      CLOUDY    32  30  93 S8        30.06S FOG     WCI  25
ORANGE CITY *  CLOUDY    32  30  93 S12       30.04S FOG     WCI  23
SHELDON *      CLOUDY    32  32 100 S9        30.03F FOG     WCI  24
SIOUX CITY     CLOUDY    34  30  85 S8        30.06F WCI  27
SPENCER        CLOUDY    32  28  85 S10       30.06F WCI  24
STORM LAKE *   CLOUDY    32  30  93 S10       30.07S WCI  24
$$

IAZ055>058-069>071-079>083-090>094-202100-
   SOUTHWEST IOWA

CITY           SKY/WX    TMP DP  RH WIND       PRES   REMARKS
ATLANTIC *     CLOUDY    34  32  93 S9        30.07F WCI  26
AUDUBON *      SUNNY     34  28  80 S7        30.08F WCI  28
CLARINDA *     CLOUDY    34  34 100 S8        30.10F WCI  27
COUNCIL BLFS * CLOUDY    32  32 100 S7        30.05F FOG     WCI  26
CRESTON *      CLOUDY    34  34 100 S9        30.09S FOG     WCI  26
HARLAN  *      CLOUDY    34  34 100 S6        30.10F FOG     WCI  29
LAMONI         CLOUDY    34  33  96 S8        30.10F FOG     WCI  27
RED OAK *      CLOUDY    34  34 100 S8        30.08F FOG     WCI  27
SHENANDOAH *   CLOUDY    36  34  93 S7        30.09S FOG     WCI  30
$$

IAZ047>049-059>061-072>074-084-202100-
   CENTRAL IOWA

CITY           SKY/WX    TMP DP  RH WIND       PRES   REMARKS
AMES           CLOUDY    33  30  88 SE8       30.11F FOG     WCI  26
ANKENY *       CLOUDY    34  34 100 S8        30.12F FOG     WCI  27
CHARITON *     CLOUDY    34  34 100 S8        30.11F FOG     WCI  27
DES MOINES     CLOUDY    35  32  88 S9        30.11F FOG     WCI  28
GRINNELL*      CLOUDY    34  32  93 SE6       30.13F FOG     WCI  29
KNOXVILLE *    CLOUDY    34  34 100 S7        30.11F FOG     WCI  28
MARSHALLTOWN   CLOUDY    33  29  85 SE7       30.12F WCI  27
PELLA *        CLOUDY    34  34 100 SE6       30.15F FOG     WCI  29
PERRY *        CLOUDY    34  34 100 S7        30.10S FOG     WCI  28
$$

IAZ004>006-015-016-023>025-035-036-202100-
   NORTH CENTRAL IOWA

CITY           SKY/WX    TMP DP  RH WIND       PRES   REMARKS
ALGONA *       PTSUNNY   32  30  93 SE9       30.09F WCI  24
CLARION *      CLOUDY    32  32 100 SE10      30.10F WCI  24
ESTHERVILLE    CLOUDY    30  28  92 S13       30.06F WCI  20
FORT DODGE *   CLOUDY    32  28  86 S5        30.10F WCI  27
MASON CITY     CLOUDY    30  27  88 S7        30.13F WCI  23
FOREST CITY *  CLOUDY    32  28  86 SE7       30.10F WCI  26
IOWA FALLS *   CLOUDY    32  30  93 SE6       30.12F WCI  26
$$

IAZ007>011-017>019-026>030-037>042-050>054-066-202100-
   NORTHEAST IOWA

CITY           SKY/WX    TMP DP  RH WIND       PRES   REMARKS
CEDAR RAPIDS   CLOUDY    32  31  96 SE6       30.15F FOG     WCI  26
CHARLES CITY * CLOUDY    32  32 100 S9        30.13F FOG     WCI  24
CLINTON *      CLOUDY    34  25  69 SE10      30.22F WCI  26
DECORAH *      CLOUDY    30  30 100 S7        30.14F FOG     WCI  23
DUBUQUE        CLOUDY    31  25  78 S9        30.17F HAZE    WCI  23
MONTICELLO *   CLOUDY    32  32 100 SE9       30.18F FOG     WCI  24
OELWEIN *      CLOUDY    32  30  93 SE9       30.15F FOG     WCI  24
WATERLOO       CLOUDY    32  31  96 S6        30.15S FOG     WCI  26
$$

IAZ064-065-067-068-078-202100-
   EAST CENTRAL IOWA

CITY           SKY/WX    TMP DP  RH WIND       PRES   REMARKS
DAVENPORT      CLOUDY    33  26  75 SE9       30.19F HAZE    WCI  25
IOWA CITY      CLOUDY    33  30  88 SE7       30.19F FOG     WCI  27
MT. PLEASANT * CLOUDY    32  32 100 S7        30.18F FOG     WCI  26
MUSCATINE *    CLOUDY    34  30  86 SE5       30.20F HAZE    WCI  30
QUAD CITIES    CLOUDY    34  27  75 SE5       30.20F HAZE    WCI  30
$$

IAZ062-063-075>077-085>089-095>099-202100-
   SOUTHEAST IOWA

CITY           SKY/WX    TMP DP  RH WIND       PRES   REMARKS
BURLINGTON     LGT SNOW  35  31  85 S6        30.18F FOG     WCI  30
FAIRFIELD *    CLOUDY    34  32  93 SE7       30.16F FOG     WCI  28
FORT MADISON * LGT RAIN  36  36 100 S5        30.19F WCI  32
KEOKUK *       CLOUDY    36  36 100 SE3       30.18F FOG
OSKALOOSA *    FOG       34  32  93 SE7       30.15F VSB 1   WCI  28
CENTERVILLE *  CLOUDY    34  34 100 S8        30.14F WCI  27
OTTUMWA        CLOUDY    35  33  92 S7        30.14F FOG     WCI  29
WASHINGTON *   CLOUDY    34  34 100 S7        30.17F FOG     WCI  28
$$

ABBREVIATIONS USED IN REMARKS
   TC - TEMPERATURES IN CELSIUS
  WCI - WIND CHILL INDEX
   HX - HEAT INDEX
  VSB - VISIBILITY
$$



USA.gov is the U.S. government's official web portal to all federal, state and local government web resources and services.